Creek Data

    Home     View Charts     View Raw Data     Messages

ID Distance Battery Voltage Battery Current Internal Temp Internal Humidity External Temp Solar Input rssi snr Time Stamp Record
65300 14.9 3.73 -5 37 50 38 0 -82 8 02/04/2026 05:30 AM 48080
65299 14.9 3.74 -34 37 49 39 0 -85 9 02/04/2026 05:15 AM 48079
65298 14.9 3.73 -5 37 50 40 0 -85 7 02/04/2026 05:00 AM 48078
65297 14.9 3.74 -5 38 50 40 0 -83 8 02/04/2026 04:45 AM 48077
65296 14.9 3.82 -5 38 49 40 0 -82 8 02/04/2026 04:30 AM 48076
65295 14.9 3.74 -5 38 49 40 0 -80 7 02/04/2026 04:15 AM 48075
65294 14.9 3.82 -5 38 49 40 0 -80 8 02/04/2026 04:00 AM 48074
65293 14.9 3.74 -5 38 49 40 0 -81 7 02/04/2026 03:45 AM 48073
65292 14.9 3.74 -5 38 50 41 0 -81 8 02/04/2026 03:30 AM 48072
65291 14.9 3.82 -5 37 51 40 0.1 -82 8 02/04/2026 03:15 AM 48071
65290 14.9 3.74 -5 37 50 39 0.1 -83 7 02/04/2026 03:00 AM 48070
65289 14.9 3.74 -5 37 50 39 0 -84 8 02/04/2026 02:45 AM 48069
65288 14.9 3.83 -5 38 50 38 0 -85 8 02/04/2026 02:30 AM 48068
65287 14.9 3.75 -5 38 50 40 0 -85 8 02/04/2026 02:15 AM 48067
65286 14.9 3.83 -5 39 50 40 0 -85 8 02/04/2026 02:00 AM 48066
65285 14.9 3.75 -5 39 50 40 0 -81 8 02/04/2026 01:45 AM 48065
65284 14.9 3.76 -5 39 50 40 0 -80 8 02/04/2026 01:30 AM 48064
65283 14.9 3.77 -5 40 50 40 0 -79 8 02/04/2026 01:15 AM 48063
65282 14.9 3.83 -5 39 50 41 0 -78 8 02/04/2026 01:00 AM 48062
65281 14.9 3.77 -5 39 50 41 0 -78 8 02/04/2026 12:45 AM 48061
65280 14.9 3.83 -5 39 50 41 0 -77 8 02/04/2026 12:30 AM 48060
65279 14.9 3.77 -5 39 50 40 0 -77 8 02/04/2026 12:15 AM 48059
65278 14.9 3.84 -5 39 51 41 0 -77 8 02/04/2026 12:00 AM 48058
65277 14.9 3.77 -5 40 51 40 0 -77 8 02/03/2026 11:45 PM 48057
65276 14.9 3.77 -5 40 51 41 0 -78 8 02/03/2026 11:30 PM 48056